Lid_Strength_Index
4 5 5 5 5 5 5 5 5 6 6 6 5 4 3 3 3 3 3 3 3 2 2 3 3 1 2 2 1 2 3 5 9 9 8 8 9 9 9 8 8 9 8
5 6 6 5 5 5 5 5 6 6 5 5 5 5 4 4 4 4 4 3 3 3 3 2 2 1 2 2 2 2 4 6 8 10 10 10 10 10 10 10 10 9 9
6 6 5 5 6 6 5 5 5 5 6 6 5 5 5 4 4 4 4 4 3 3 2 2 2 2 2 2 2 2 5 6 7 10 11 10 10 11 12 13 13 12 10
5 6 6 6 5 5 5 5 5 5 5 5 6 6 6 6 5 5 5 5 4 2 1 1 1 2 2 3 2 4 6 8 8 10 11 12 13 13 14 15 16 14 15
5 6 6 6 6 6 6 6 6 6 6 6 6 6 6 6 5 5 5 5 4 3 2 2 1 1 1 1 4 6 7 9 9 12 13 14 15 15 16 15 16 16 16
6 7 7 7 7 7 7 8 7 7 7 7 7 6 6 6 4 4 4 4 3 3 3 2 1 1 1 1 2 3 6 8 10 12 13 15 16 16 16 16 16 17 18
8 8 8 8 8 8 8 8 8 8 8 8 8 7 7 6 4 3 3 4 3 3 3 2 2 1 1 2 3 4 5 6 8 11 14 15 16 16 16 16 17 17 18
9 9 8 8 9 9 9 9 9 9 9 8 8 7 7 7 4 4 3 3 3 2 3 4 5 5 6 7 8 8 9 10 10 10 12 13 14 15 14 15 17 18 18
9 9 9 9 10 10 10 10 9 8 8 7 5 6 7 6 3 4 6 7 7 7 7 7 8 8 6 7 10 10 11 10 8 8 9 10 10 11 13 15 17 17 18
9 8 8 8 10 10 9 9 9 8 8 7 7 6 5 6 5 5 6 7 8 8 7 7 6 7 7 8 10 11 12 12 12 12 12 12 12 12 12 15 15 15 15
8 7 8 8 9 8 9 9 10 9 9 9 8 8 7 7 7 6 7 9 10 10 11 10 9 8 9 9 10 13 13 13 13 16 16 15 15 15 15 14 15 14 15
8 8 8 7 8 9 9 10 9 9 10 10 10 9 9 8 7 7 7 8 9 11 11 11 10 9 9 9 10 9 9 11 14 14 15 15 15 15 14 14 13 12 12
8 8 7 8 8 8 9 10 10 10 10 10 10 10 10 9 8 7 7 7 7 9 9 8 7 7 7 8 8 9 11 14 14 15 15 15 15 15 14 12 12 11 11
8 8 8 8 9 9 9 9 10 11 11 11 11 11 11 11 10 9 9 9 8 9 9 10 9 10 9 10 12 12 13 13 14 14 15 15 14 14 13 13 12 11 11
7 8 9 9 10 10 9 10 10 9 9 10 10 10 10 11 10 9 10 12 12 11 12 13 13 14 14 14 14 14 14 14 14 14 14 14 14 14 13 13 12 12 12
9 9 9 9 9 9 10 9 7 6 6 6 6 8 8 7 7 8 8 8 9 9 13 14 14 14 14 14 14 14 14 13 14 14 14 14 14 13 13 13 12 12 12
9 9 9 9 9 10 9 9 10 8 6 6 6 7 7 7 7 8 8 9 9 10 14 14 14 14 15 15 15 15 15 15 14 14 14 14 13 13 13 13 12 12 12
8 8 9 8 8 9 9 10 9 10 10 10 7 8 7 8 8 8 9 11 13 13 14 14 15 15 15 15 15 15 15 14 14 14 14 14 14 13 14 14 13 13 12
8 8 7 8 9 9 10 10 10 11 11 12 11 9 9 8 8 9 10 13 14 15 14 15 14 14 15 14 14 14 14 14 15 14 15 14 14 14 14 13 13 10 11
8 7 7 9 10 10 11 11 12 12 13 13 13 13 13 12 13 13 13 13 14 14 14 14 14 14 14 14 14 14 14 14 15 14 14 14 14 14 14 14 14 13 13
8 7 8 10 10 11 11 12 12 12 12 12 12 11 10 13 14 14 14 14 14 14 14 14 14 14 14 14 14 14 14 14 14 14 14 14 14 14 14 14 14 14 13
8 8 9 10 10 11 12 12 12 12 12 13 13 11 10 13 13 14 14 14 14 14 14 14 14 15 15 14 14 14 14 14 14 14 14 14 14 14 14 14 14 14 14
8 8 9 10 11 11 12 13 13 13 13 13 13 13 13 13 14 14 14 14 14 14 14 14 14 14 14 14 14 14 14 14 14 14 14 14 14 14 14 14 14 14 14
8 9 10 11 12 13 13 13 13 12 13 13 13 14 14 14 14 14 14 14 14 14 14 14 14 14 14 14 14 14 14 14 14 13 13 13 14 13 14 14 14 14 14
8 9 10 12 12 14 14 13 13 13 13 13 13 14 14 14 14 14 14 14 14 14 14 14 14 13 13 13 13 13 12 12 13 12 14 14 14 14 14 15 14 15 14
9 10 11 12 13 14 14 14 14 14 13 14 14 14 14 14 14 14 14 14 14 14 14 14 13 13 13 13 12 11 10 11 12 11 13 14 14 14 15 15 15 15 15